Location: Arbon
(43.0005°N, 0.7472°E)
Time: 09:51:21
(UTC+00:00)

SR - Pass Details

Date: 04 December 2020
Orbit: 575 x 880 km, 66.7° (Epoch: 21 January)

Event Time Altitude Azimuth Distance (km) Brightness Sun altitude
Rises 00:50:54 0° 335° (NNW) 3,185 - -65.4°
Reaches altitude 10° 00:53:28 10° 346° (NNW) 2,309 - -65.1°
Maximum altitude 00:58:13 32° 49° (NE) 1,361 - -64.6°
Drops below altitude 10° 01:03:16 10° 112° (ESE) 2,459 - -63.9°
Sets 01:06:04 0° 122° (ESE) 3,423 - -63.6°
